TimePST,TemperatureF,Dew PointF,Humidity,Sea Level PressureIn,VisibilityMPH,Wind Direction,Wind SpeedMPH,Gust SpeedMPH,PrecipitationIn,Events,Conditions,WindDirDegrees,DateUTC
12:53 AM,23.0,21.0,92,30.16,10.0,Calm,Calm,-,N/A,,Mostly Cloudy,0,2012-12-07 08:53:00
1:53 AM,24.1,21.0,88,30.16,10.0,Calm,Calm,-,N/A,,Mostly Cloudy,0,2012-12-07 09:53:00
2:53 AM,28.0,24.1,85,30.15,10.0,NNE,6.9,-,N/A,,Mostly Cloudy,30,2012-12-07 10:53:00
3:53 AM,27.0,24.1,89,30.15,10.0,SW,5.8,-,N/A,,Mostly Cloudy,230,2012-12-07 11:53:00
4:53 AM,26.1,24.1,92,30.15,10.0,Calm,Calm,-,N/A,,Clear,0,2012-12-07 12:53:00
5:53 AM,26.1,23.0,88,30.15,10.0,Calm,Calm,-,N/A,,Mostly Cloudy,0,2012-12-07 13:53:00
6:53 AM,25.0,23.0,92,30.16,10.0,Calm,Calm,-,N/A,,Scattered Clouds,0,2012-12-07 14:53:00
7:53 AM,26.1,24.1,92,30.15,10.0,NNE,3.5,-,N/A,,Scattered Clouds,20,2012-12-07 15:53:00
8:53 AM,28.0,26.1,92,30.13,10.0,WSW,5.8,-,N/A,,Clear,250,2012-12-07 16:53:00
9:53 AM,30.9,28.0,89,30.13,10.0,Calm,Calm,-,N/A,,Overcast,0,2012-12-07 17:53:00
10:53 AM,34.0,28.9,82,30.11,10.0,West,5.8,-,N/A,,Mostly Cloudy,260,2012-12-07 18:53:00
11:53 AM,36.0,28.0,73,30.07,10.0,Calm,Calm,-,N/A,,Scattered Clouds,0,2012-12-07 19:53:00
12:53 PM,39.0,27.0,62,30.04,10.0,Calm,Calm,-,N/A,,Mostly Cloudy,0,2012-12-07 20:53:00
1:53 PM,37.0,30.0,76,30.03,10.0,West,5.8,-,N/A,,Scattered Clouds,260,2012-12-07 21:53:00
2:53 PM,35.1,28.9,78,30.02,10.0,SW,4.6,-,N/A,,Scattered Clouds,230,2012-12-07 22:53:00
3:53 PM,33.1,28.0,82,30.02,10.0,Calm,Calm,-,N/A,,Scattered Clouds,0,2012-12-07 23:53:00
4:53 PM,36.0,25.0,64,30.00,10.0,SSW,3.5,-,N/A,,Mostly Cloudy,200,2012-12-08 00:53:00
6:53 PM,35.1,27.0,72,29.98,10.0,South,4.6,-,N/A,,Overcast,180,2012-12-08 02:53:00
7:53 PM,37.0,25.0,62,29.98,10.0,SSW,3.5,-,N/A,,Overcast,200,2012-12-08 03:53:00
8:53 PM,37.9,21.9,53,30.00,10.0,West,12.7,20.7,N/A,,Overcast,270,2012-12-08 04:53:00
9:27 PM,33.8,28.4,81,29.95,8.0,NNW,17.3,25.3,0.00,Snow,Light Snow,330,2012-12-08 05:27:00
9:32 PM,32.0,28.4,87,29.95,2.0,NW,25.3,32.2,0.00,Snow,Light Snow,320,2012-12-08 05:32:00
9:38 PM,32.0,30.2,93,29.95,0.8,NNW,20.7,32.2,0.00,Snow,Light Snow,330,2012-12-08 05:38:00
9:48 PM,32.0,30.2,93,29.96,0.8,NNW,19.6,-,0.00,Snow,Light Snow,330,2012-12-08 05:48:00
9:49 PM,32.0,30.9,96,30.03,0.8,NNW,20.7,-,0.00,Snow,Light Snow,330,2012-12-08 05:49:00
9:57 PM,32.0,30.2,93,29.96,1.0,NNW,11.5,-,0.00,Snow,Light Snow,330,2012-12-08 05:57:00
10:04 PM,32.0,30.2,93,29.96,2.0,NW,10.4,-,0.00,Snow,Light Snow,320,2012-12-08 06:04:00
10:07 PM,32.0,30.2,93,29.97,3.0,NW,17.3,23.0,0.00,Snow,Light Snow,310,2012-12-08 06:07:00
10:16 PM,33.8,26.6,75,29.95,4.0,NW,23.0,31.1,0.00,Snow,Light Snow,310,2012-12-08 06:16:00
10:26 PM,32.0,26.6,80,29.96,9.0,WNW,26.5,34.5,0.00,Snow,Light Snow,300,2012-12-08 06:26:00
10:53 PM,32.0,25.0,75,30.04,10.0,NW,15.0,24.2,0.00,,Overcast,320,2012-12-08 06:53:00
11:53 PM,30.9,21.0,67,30.06,10.0,NW,16.1,26.5,N/A,,Overcast,310,2012-12-08 07:53:00